THORAD AGENA D R/B

Satellite information

Favourite Embed

Satellite Type and Status

ROCKET BODYIN ORBIT

Key statistics

Satellite THORAD AGENA D R/B at a glance.

Uptime

20370

Days in orbit

Revolutions

≈ 13.7

Per day

Orbit

LEO

Low Earth Orbit

Inclination

70.0

Latest

Satellite identification and parameters

Extended collection of information and parameters for THORAD AGENA D R/B.

Object identification

Identified? True

Debris? False

Object name: THORAD AGENA D R/B

International designator: 1969-082AB

Object number (NORAD): 4159

Object ID (CCSDS): 4159

Country: UNITED STATES OF AMERICA (US)

Current information (Y/N): Y

RCS size: LARGE

Orbital parameters

Period: 104.892 minutes

Inclination: 69.9601 deg

SMA: 7367.54 km

Apoapsis: 1073.39 km

Periapsis: 905.42 km

RAAN: 217.329 deg

Eccentricy: 0.0113993

Argument of periapsis: 26.7731 deg

Mean anomaly: 333.9184 deg

Mean motion: 13.72837073 rev/day

Mean motion (dot): 0.00000019 rev/day2

B* drag term: 0.000071078 1/REarth

Two-line elements (TLE)

Creation date: July 8, 2025, 2:27 a.m.

Reference frame: TEME

Reference center: EARTH

Epoch: July 7, 2025, 7:17 p.m. UTC

TLE line 0: 0 THORAD AGENA D R/B

TLE line 1: 1 04159U 69082AB 25188.80363196 .00000019 00000-0 71078-4 0 9991

TLE line 2: 2 04159 69.9601 217.3290 0113993 26.7731 333.9184 13.72837073791311

Live tracking on map

Real-time ground track for satellite THORAD AGENA D R/B.

In-orbit conjunctions

A list of the most updated potential collisions computed for object THORAD AGENA D R/B.

Target Orbit TCA Probability of collision Miss distance Type
NOAA 16 DEB SSO 2025-04-19 06:11:37 0.0004849766 80.0 (m) DEBRIS

Associated space launch

Poppy was the follow-on ELINT system, which succeeded the Grab ELINT satellite system.

THORAD AGENA D R/B was lifted into orbit during the mission ‘Thorad SLV-2G Agena D | Poppy 8A,B,C,D’, on board a Thorad SLV-2G Agena D space rocket.

The launch took place on Sept. 30, 1969, 1:40 p.m. from Space Launch Complex 1W.

For more information about the launch, click the button.

Launch to space Thorad SLV-2G Agena D | Poppy 8A,B,C,D
Thorad SLV-2G Agena D | Poppy 8A,B,C,D

Agency: N/A

Status: Launch Successful

Launch date: Sept. 30, 1969, 1:40 p.m. UTC

Rocket: Thorad SLV-2G Agena D

Launch pad: Space Launch Complex 1W

Location: Vandenberg SFB, CA, USA

...

Latest news about this satellite

There are no fresh news available about this satellite. Check back as we update our databases every day.


Newsletter sign-up

Weekly statistics, charts and insights to help you stay on top of the space industry.